Regional Weather Roundup
Issued by NWS

Home | Current Version | Previous Version | Graphics & Text | Print | Product List | Glossary Off
Versions: 1 2 3 4 5 6 7 8 9 10 11 12 13 14 15 16 17 18 19 20 21 22 23 24 25 26 27 28 29 30 31 32 33 34 35 36 37 38 39 40 41 42 43 44 45 46 47 48 49 50

000
ASUS43 KTOP 160559
RWRKS

WEATHER ROUNDUP FOR KANSAS
NATIONAL WEATHER SERVICE GOODLAND KS
100 AM CDT TUE SEP 16 2014

NOTE:  "FAIR" INDICATES FEW OR NO CLOUDS BELOW 12,000 FEET WITH NO
SIGNIFICANT WEATHER AND/OR OBSTRUCTIONS TO VISIBILITY.

KSZ001>006-013>018-027>032-041>047-160700-
NORTHWEST KANSAS

CITY           SKY/WX    TMP DP  RH WIND       PRES   REMARKS
GOODLAND       CLEAR     51  49  92 S9        30.28F
6HR MIN TEMP:  51; 6HR MAX TEMP:  65;

HAYS           CLEAR     52  43  71 E7        30.26F
HILL CITY      CLEAR     46  41  82 CALM      30.27F
6HR MIN TEMP:  46; 6HR MAX TEMP:  70;

RUSSELL        CLEAR     50  46  86 E8        30.25S
6HR MIN TEMP:  50; 6HR MAX TEMP:  68;

$$

KSZ061>065-074>080-084>089-160700-
SOUTHWEST KANSAS

CITY           SKY/WX    TMP DP  RH WIND       PRES   REMARKS
DODGE CITY     CLOUDY    61  53  75 NE3       30.27S
6HR MIN TEMP:  61; 6HR MAX TEMP:  64;

ELKHART          N/A     59  56  90 CALM        N/A
GARDEN CITY    CLOUDY    58  56  93 CALM      30.27F
6HR MIN TEMP:  58; 6HR MAX TEMP:  64;

GREAT BEND     CLEAR     55  48  76 E7        30.26S
LIBERAL        CLOUDY    61  54  77 E3        30.28F
PRATT          PTCLDY    55  54  94 CALM      30.26S
$$

KSZ066>073-081>083-090>101-160700-
SOUTHEAST KANSAS

CITY           SKY/WX    TMP DP  RH WIND       PRES   REMARKS
CHANUTE        CLOUDY    63  56  78 NE13      30.20F
6HR MIN TEMP:  63; 6HR MAX TEMP:  71; 6HR PCP: TRACE;

COFFEYVILLE    CLOUDY    67  62  84 NE8       30.17F
6HR MIN TEMP:  67; 6HR MAX TEMP:  73;

HUTCHINSON     CLOUDY    62  53  72 NE5       30.24S
6HR MIN TEMP:  59; 6HR MAX TEMP:  68;

NEWTON         CLOUDY    59  46  63 NE7       30.26R
PARSONS        CLOUDY    67  60  78 N6        30.20S
6HR MIN TEMP:  67; 6HR MAX TEMP:  73;

WICHITA INTL   MOCLDY    64  54  69 NE13      30.22S
6HR MIN TEMP:  64; 6HR MAX TEMP:  72;

WICHITA JABRA  CLOUDY    61  53  75 NE12      30.22S
6HR MIN TEMP:  61; 6HR MAX TEMP:  69;

WINFIELD       CLOUDY    67  59  75 NE10      30.20F
6HR MIN TEMP:  67; 6HR MAX TEMP:  75;

$$

KSZ007>012-019>026-033>040-048>060-102>105-160700-
NORTHEAST KANSAS

CITY           SKY/WX    TMP DP  RH WIND       PRES   REMARKS
CONCORDIA      CLEAR     47  46  97 E3        30.27S
6HR MIN TEMP:  47; 6HR MAX TEMP:  65;

EMPORIA        CLEAR     55  52  89 NE6       30.24S
6HR MIN TEMP:  55; 6HR MAX TEMP:  67;

LAWRENCE       CLEAR     51  48  89 N3        30.26R
6HR MIN TEMP:  47; 6HR MAX TEMP:  65;

MANHATTAN      CLEAR     52  48  86 NE6       30.27R
6HR MIN TEMP:  51; 6HR MAX TEMP:  67;

OLATHE IND     CLEAR     50  48  93 N3        30.25S
6HR MIN TEMP:  50; 6HR MAX TEMP:  64;

OLATHE EXE     CLEAR     54  50  86 CALM      30.24S
6HR MIN TEMP:  53; 6HR MAX TEMP:  64;

SALINA         CLEAR     57  50  77 NE5       30.26S
6HR MIN TEMP:  56; 6HR MAX TEMP:  71;

TOPEKA BILLARD CLEAR     53  50  89 N3        30.26S
6HR MIN TEMP:  52; 6HR MAX TEMP:  67;

TOPEKA FORBES  CLEAR     52  50  93 N6        30.25S
6HR MIN TEMP:  50; 6HR MAX TEMP:  66;

$$



USA.gov is the U.S. government's official web portal to all federal, state and local government web resources and services.